Wind_Speed
41 39 37 34 32 31 31 31 31 31 31 31 32 33 33 34 33 33 32 32 32 31 29 29 29 30 32 37 44 51 59 67 75 82 88 90 90 86 83 82 82 84 87 89 90 91 91 91 90 89 89 89 89 89 89 89 87 85 81 79 77 77 77 76 75 73 72 72 73 72 69 67 66 65 65 64 64 63 63 62 62 62 64 65 67
40 38 37 35 33 32 31 31 30 31 31 31 31 32 33 33 32 32 31 31 31 31 30 29 29 29 29 31 35 41 49 56 64 71 77 82 86 88 87 85 83 82 83 84 86 86 87 87 87 87 87 87 87 88 88 88 87 85 83 81 79 78 78 77 77 75 73 72 73 74 73 69 67 66 66 65 64 64 63 62 62 62 62 63 64
39 38 37 36 35 34 32 31 30 30 31 31 31 32 33 33 33 32 31 30 30 31 31 30 29 29 28 28 30 33 38 45 53 60 66 72 77 82 85 86 86 84 84 83 84 84 84 84 84 85 87 87 87 87 88 88 88 87 86 84 83 82 81 80 79 78 76 73 73 75 76 73 69 67 67 66 65 65 64 63 62 61 61 61 61
38 38 37 37 36 35 34 32 31 30 30 31 32 32 33 33 33 32 31 30 29 31 31 31 30 29 28 27 28 29 32 36 42 49 56 61 67 72 77 82 85 86 86 86 86 86 86 85 84 84 85 86 87 87 87 87 87 86 85 85 84 84 83 83 82 81 79 76 74 75 76 76 73 70 69 67 66 65 65 64 63 61 60 60 59
37 36 37 38 38 37 34 33 32 31 30 31 32 33 33 33 33 33 32 30 29 30 30 30 29 28 27 26 27 27 29 31 34 40 46 52 57 63 68 73 78 83 86 88 89 89 89 89 88 87 87 87 87 87 86 86 85 84 83 82 81 82 83 83 83 83 81 78 76 76 77 77 75 72 70 69 68 66 65 65 65 63 61 60 60
38 36 35 37 38 38 35 33 32 32 31 30 31 32 32 33 33 33 32 31 30 29 29 29 29 28 26 26 26 26 27 28 30 33 37 43 48 53 59 64 69 74 79 83 87 90 92 93 93 92 92 91 90 89 88 87 86 85 83 81 79 79 80 82 83 83 82 80 79 79 77 76 75 73 70 69 70 69 67 66 66 64 62 61 60
39 37 36 36 37 37 36 34 32 31 31 31 31 32 33 34 35 34 33 32 31 30 30 29 29 29 28 27 27 27 27 28 29 31 33 36 40 44 48 54 59 65 70 75 79 84 89 93 95 96 97 97 96 94 94 93 91 89 87 84 82 80 79 79 80 82 82 82 82 81 78 76 74 73 71 71 71 70 68 67 66 65 63 62 61
41 39 37 36 36 36 36 35 33 31 30 31 31 32 33 34 35 35 35 35 33 32 31 31 31 32 31 30 30 30 30 30 31 32 33 35 37 39 42 45 48 53 58 63 68 73 78 83 88 93 97 99 100 99 98 98 97 96 94 91 88 85 81 79 79 80 82 84 83 81 78 75 74 73 72 72 71 70 68 67 66 66 64 63 62
43 41 38 37 36 35 35 34 33 31 29 30 31 32 32 33 35 36 37 36 35 34 34 34 34 34 34 34 33 33 34 34 34 35 36 37 38 40 41 42 44 46 48 50 53 57 61 66 71 76 82 88 93 96 98 99 99 99 98 97 94 91 87 83 81 80 81 83 84 82 80 77 74 72 72 71 71 71 69 67 67 66 64 62 61
44 41 39 38 37 35 34 33 32 30 29 28 30 31 31 32 34 36 37 38 38 37 37 38 37 37 37 37 37 37 37 38 38 39 40 41 42 43 44 45 45 46 47 48 48 50 53 55 57 60 63 68 72 78 84 89 94 96 97 97 96 94 91 87 84 82 81 81 81 81 79 77 73 71 69 69 70 71 70 68 67 65 63 62 62
43 41 39 39 37 35 34 32 30 29 28 28 29 30 31 32 33 34 36 38 39 40 40 40 40 40 40 40 40 40 40 41 42 43 44 45 45 46 47 48 48 49 49 50 51 53 54 56 57 58 59 60 62 64 68 73 79 85 89 92 93 93 92 90 87 85 82 80 78 77 76 74 71 70 69 69 69 70 69 68 66 64 62 61 62
40 39 39 39 37 35 33 31 29 27 27 27 28 30 31 32 32 33 34 37 39 40 41 41 42 42 41 41 41 41 42 43 44 45 46 47 48 49 49 50 51 51 52 53 55 56 58 59 60 61 62 63 63 63 64 66 68 72 77 83 87 89 89 88 87 86 84 82 79 76 74 72 70 69 69 68 69 70 70 68 66 64 63 62 61
38 36 36 37 35 34 32 29 27 26 25 26 27 30 31 32 32 32 33 35 36 37 38 39 40 40 40 40 41 42 43 44 45 46 47 48 50 51 52 52 53 53 54 55 57 58 60 61 62 63 64 65 66 66 66 67 67 68 70 74 80 85 87 86 85 85 84 82 81 77 74 72 70 69 68 68 69 69 70 68 67 65 63 62 61
37 33 33 34 34 32 30 27 26 24 24 25 27 29 31 31 32 32 32 32 33 34 35 36 36 37 38 39 39 40 41 42 43 45 47 48 49 51 53 54 54 54 55 56 57 59 60 62 64 65 66 67 68 69 69 69 69 70 70 70 74 79 85 85 83 83 82 81 80 77 74 72 70 69 68 69 69 69 69 68 67 65 62 61 60
36 31 30 31 31 29 27 25 24 23 23 24 27 29 29 28 29 29 29 29 29 29 30 31 33 34 35 36 37 37 39 41 43 45 47 48 50 52 54 54 54 55 55 55 56 56 57 58 60 62 64 65 67 69 69 69 70 70 71 71 71 73 80 84 82 80 80 79 77 76 74 72 69 68 68 68 68 68 67 67 66 64 61 60 59
32 29 27 28 28 26 24 22 22 22 23 25 26 26 25 24 25 25 25 24 25 25 26 28 29 31 32 34 35 37 39 41 43 44 45 47 49 50 52 52 52 52 52 51 51 49 48 47 49 53 56 58 60 63 65 66 67 68 70 71 71 70 74 79 80 77 76 75 73 72 72 69 67 67 67 68 68 66 64 63 62 60 58 58 58
27 25 24 25 24 22 20 20 20 21 22 24 23 21 20 20 20 20 20 21 22 23 24 26 27 29 31 32 34 36 37 38 39 40 41 41 43 45 45 45 44 44 43 41 39 37 36 38 41 45 48 49 51 53 56 57 60 63 66 68 68 67 68 73 77 74 70 71 71 70 68 65 64 65 66 66 65 62 61 60 58 56 56 57 58
21 20 21 21 20 18 17 17 18 20 21 20 18 16 16 16 16 17 18 19 21 22 23 25 25 26 26 27 28 29 29 30 31 33 34 36 38 39 39 37 36 34 32 30 29 29 30 34 38 40 41 42 43 45 47 48 51 55 59 61 62 63 63 67 70 68 64 65 67 66 64 61 61 63 64 62 60 58 58 57 56 55 56 57 58
16 16 16 16 15 14 14 15 17 17 17 15 13 12 13 14 16 16 17 18 19 19 18 16 15 14 13 13 14 15 17 20 24 26 28 30 33 34 33 30 28 27 26 25 25 26 29 33 36 38 38 38 39 41 41 42 44 47 50 52 55 56 57 60 63 62 59 58 60 59 58 58 58 60 59 58 56 56 55 55 55 54 54 54 54
12 12 13 12 11 11 12 14 14 14 12 11 11 12 13 14 14 14 13 12 10 7 4 3 4 5 7 9 10 12 13 16 18 20 21 22 25 27 26 24 22 22 22 24 25 27 29 31 33 34 33 33 35 38 38 37 38 41 43 45 47 49 50 52 56 57 54 53 54 54 54 54 54 54 54 53 53 53 53 52 52 51 51 51 50
10 10 9 8 8 9 10 11 10 9 9 10 11 11 11 10 10 8 5 2 2 4 5 5 6 7 8 9 10 11 12 12 13 14 15 15 17 18 19 18 17 19 21 23 25 26 26 27 29 30 29 29 32 33 33 33 35 37 38 39 41 43 45 48 53 54 53 52 51 49 47 47 48 48 50 50 51 51 50 50 49 49 49 49 49
8 7 6 6 7 8 7 7 7 7 9 9 8 7 6 5 4 2 5 7 7 7 6 6 6 7 8 9 10 10 11 11 11 11 11 11 12 13 14 14 16 19 22 22 22 22 22 24 25 24 21 21 23 24 25 27 30 32 34 36 39 42 46 49 52 53 51 48 45 44 44 45 46 47 49 49 49 48 48 48 47 46 46 47 48
9 7 6 6 5 5 5 5 7 7 7 6 5 4 3 3 5 7 8 8 7 7 7 6 6 7 8 9 11 11 11 12 13 12 12 11 10 12 13 15 17 20 20 18 17 17 18 18 17 15 14 15 16 17 18 20 24 28 32 36 40 44 47 50 50 49 46 43 41 42 43 44 46 47 47 47 46 46 46 45 44 44 45 46 48
10 8 7 5 4 4 5 7 7 6 6 6 7 6 6 7 9 9 8 7 6 6 7 7 8 8 9 10 11 11 11 13 14 13 13 12 12 12 12 14 16 16 15 14 14 13 11 11 13 12 10 11 14 16 16 18 22 27 31 35 39 43 46 48 46 43 41 40 41 43 43 43 44 45 45 44 44 43 42 42 42 43 45 46 48
11 9 7 6 5 6 7 6 6 7 8 9 9 8 8 9 9 9 9 8 8 7 8 8 8 8 9 11 10 10 10 11 12 14 13 11 10 10 10 11 12 12 12 13 12 9 8 9 13 12 10 12 14 14 15 18 22 27 29 31 34 40 44 45 41 37 37 39 41 41 40 39 41 42 42 41 40 40 40 40 41 43 45 47 48
10 9 8 7 7 7 7 8 9 10 10 10 10 9 9 9 9 10 10 9 9 8 9 10 10 10 10 10 10 10 10 10 11 13 12 7 4 4 5 7 8 9 10 10 8 8 7 9 14 14 12 13 13 14 16 19 19 20 23 25 30 37 41 41 38 35 34 35 37 38 38 37 38 38 39 38 37 37 38 40 42 44 46 47 48
11 10 9 9 8 8 9 10 11 11 10 10 10 10 8 9 10 10 9 9 9 10 12 13 13 14 13 12 10 10 10 9 10 10 7 4 2 2 2 4 6 7 7 6 5 6 6 11 16 15 11 12 13 14 17 18 15 16 19 23 27 33 37 39 38 36 35 36 37 37 37 37 36 36 37 37 37 37 38 40 42 44 45 47 48
11 11 11 10 8 9 10 11 11 11 10 11 10 9 8 9 9 8 8 9 10 11 13 13 13 14 14 12 10 9 9 10 9 6 4 3 1 1 2 2 3 2 2 3 4 4 6 12 16 15 13 13 13 13 15 16 16 19 22 22 23 28 32 35 37 37 37 37 36 35 34 34 34 35 36 37 37 38 39 40 42 43 45 47 50
13 13 11 9 10 10 10 10 10 10 10 10 10 8 9 10 9 9 10 11 11 12 13 13 13 13 13 12 10 8 8 9 7 4 3 2 1 1 3 4 4 4 4 4 4 5 7 10 13 13 13 13 13 14 16 17 19 22 23 23 23 25 28 30 32 33 34 34 34 34 34 34 34 35 36 37 38 38 39 40 42 44 47 49 51
16 13 10 10 11 10 9 8 9 9 9 10 11 10 10 10 9 9 11 12 14 16 16 16 16 16 15 14 12 9 8 8 6 5 5 4 3 2 2 3 4 4 5 6 6 6 7 8 10 10 10 10 11 12 15 19 22 22 22 24 27 28 28 30 31 32 33 35 35 36 35 34 34 35 36 37 37 38 40 42 44 46 48 49 49
15 10 11 12 11 10 9 8 8 9 9 10 12 11 10 9 8 9 11 14 17 18 16 16 18 19 18 16 15 13 11 9 8 10 11 10 8 7 6 4 4 4 5 6 7 7 7 7 8 7 7 8 10 12 14 18 21 21 22 23 25 27 29 31 31 32 33 33 33 33 33 34 35 35 36 37 38 39 41 43 45 46 46 46 46
12 11 12 12 11 10 10 9 10 11 12 13 12 11 10 10 10 11 13 16 19 18 16 14 16 18 19 18 16 14 13 12 13 14 14 14 14 14 12 11 9 6 5 4 5 6 8 10 9 8 8 10 11 12 13 14 16 17 18 19 21 23 25 26 27 28 28 29 30 31 32 33 34 35 37 38 39 40 42 42 43 43 43 43 43
11 12 12 11 12 12 12 13 13 13 13 13 12 12 12 12 13 15 16 18 19 18 14 11 12 14 16 18 17 14 13 13 13 14 15 15 16 15 14 13 12 10 8 6 5 5 6 8 9 9 10 12 12 13 13 14 14 15 15 16 17 19 21 22 23 24 26 28 30 31 32 34 35 36 37 38 38 38 39 39 39 39 40 40 40
12 12 11 12 14 14 14 15 15 14 13 12 12 13 13 13 14 15 16 17 17 15 12 10 9 10 12 14 16 15 13 11 10 11 13 14 15 15 14 13 12 12 11 10 8 8 8 9 10 11 12 14 15 15 15 14 14 13 13 14 15 17 19 21 22 24 26 28 30 31 32 32 33 33 33 34 34 34 35 35 36 36 37 38 39
11 11 11 13 14 14 14 14 14 12 12 12 12 14 14 14 14 14 14 14 14 13 12 10 9 9 9 10 11 12 12 10 9 8 9 10 12 12 12 12 11 11 11 11 10 9 9 10 10 11 12 13 13 13 13 13 12 12 12 13 14 15 17 19 21 22 24 25 26 26 27 27 27 28 29 30 30 31 32 32 33 34 35 37 39
10 10 10 11 12 13 12 12 11 10 10 11 13 14 14 14 15 15 15 15 15 14 13 13 11 10 9 7 7 8 9 9 9 8 8 8 8 8 8 8 8 9 9 9 9 9 9 9 9 10 10 10 11 11 11 11 11 11 12 12 13 14 15 16 17 18 18 19 20 21 22 23 24 25 26 27 28 29 30 31 32 34 36 39 41
8 8 8 9 10 10 10 10 9 10 10 11 12 13 14 14 16 17 17 16 16 16 16 15 14 12 10 7 5 4 5 6 7 8 8 8 7 6 6 6 6 7 7 7 7 8 8 8 8 9 9 9 10 11 11 11 11 11 11 11 12 12 12 13 13 14 15 16 17 18 20 21 23 23 24 25 26 28 30 32 34 36 38 40 42
7 7 6 6 7 7 8 7 8 9 9 9 10 12 13 14 15 16 17 17 16 15 16 16 16 14 11 8 6 4 3 3 3 4 5 6 6 6 6 6 6 6 7 7 7 8 8 8 8 8 8 8 8 8 9 9 9 8 8 9 9 9 10 11 12 13 15 16 17 18 19 20 20 21 23 25 27 29 32 34 36 37 38 40 41
8 5 6 6 5 5 5 5 6 7 7 7 7 9 12 13 14 15 16 17 16 15 15 16 16 15 13 10 7 5 4 4 4 3 1 2 3 4 4 5 5 6 6 7 7 7 7 6 6 5 4 4 4 3 3 3 3 4 5 7 8 9 11 12 13 14 15 15 16 16 17 18 20 22 24 27 29 31 33 34 35 37 38 40 42
10 5 5 6 6 5 4 3 3 5 5 5 5 7 9 12 14 15 16 17 17 15 15 15 16 17 16 11 7 5 3 3 5 6 5 4 2 1 2 3 3 3 4 4 3 3 3 3 3 3 3 2 2 3 3 4 6 7 8 9 10 11 11 12 12 12 12 12 13 15 17 19 22 24 26 28 30 31 32 34 36 38 40 42 44
11 6 3 6 7 6 5 3 1 2 3 3 4 5 7 10 12 14 16 17 17 16 15 15 17 18 17 13 8 4 3 2 3 7 9 8 7 6 5 3 2 1 1 1 2 3 4 5 5 6 6 6 6 6 7 8 8 9 10 9 9 9 9 8 9 9 11 13 15 17 20 22 23 25 26 28 30 32 34 36 38 40 43 45 47
10 7 3 3 6 7 6 5 3 2 2 3 4 5 7 9 10 13 15 17 17 16 16 18 19 18 16 12 7 4 3 2 1 3 8 11 11 9 7 5 4 3 2 2 4 5 6 7 8 8 8 8 8 8 9 9 9 8 7 6 6 6 6 8 9 12 14 15 17 19 20 22 23 25 27 29 32 34 37 39 41 43 45 47 48
8 7 4 0 4 7 7 6 6 5 5 5 6 6 8 10 11 12 14 17 18 18 17 19 20 18 13 9 8 6 3 3 3 2 3 8 11 11 9 7 7 6 5 5 6 7 8 8 9 9 9 8 8 7 6 5 4 4 4 5 6 7 9 11 12 13 15 16 17 19 21 23 25 28 30 33 35 38 40 42 43 45 46 47 47
7 6 5 3 1 4 6 7 7 7 7 8 8 9 9 11 12 12 13 17 19 18 18 19 19 17 13 10 9 7 5 4 4 5 4 3 6 9 9 8 7 7 6 6 7 7 8 8 8 7 7 6 5 3 2 2 3 4 6 7 8 9 10 11 12 13 15 16 18 21 23 26 28 31 33 36 38 40 41 43 44 45 45 45 44
6 6 6 5 3 2 4 6 7 8 8 8 9 10 11 12 12 12 13 16 17 18 18 18 17 16 14 12 9 7 6 6 6 7 7 6 4 5 6 7 7 7 6 6 5 5 6 5 5 4 3 2 2 2 3 4 6 7 8 8 9 9 10 11 13 15 17 19 21 24 26 29 31 33 36 38 40 41 42 43 43 43 42 41 41
7 6 6 5 4 3 2 3 5 7 7 8 10 10 11 11 11 11 13 15 16 16 16 16 15 15 15 13 10 8 7 7 7 8 8 7 6 4 4 4 4 4 3 1 1 2 2 2 3 3 3 2 3 4 5 6 6 7 7 8 8 10 11 13 15 17 20 22 25 27 29 31 34 36 38 40 41 42 42 42 41 40 39 39 39
7 6 5 5 4 4 3 2 2 3 4 6 8 9 9 9 10 10 11 12 13 13 14 14 13 15 15 14 11 10 9 8 8 8 8 8 7 6 5 4 4 4 4 3 2 2 2 2 2 2 3 3 4 4 5 5 5 6 7 8 10 11 13 15 18 20 22 24 27 29 31 34 36 37 39 40 41 41 40 39 38 37 37 37 38
6 5 5 4 5 5 4 4 3 3 3 4 5 6 6 6 7 7 8 8 9 11 12 12 13 15 16 14 12 11 10 10 10 9 9 8 7 7 6 6 5 5 4 3 2 1 1 2 2 2 2 2 3 3 4 5 6 8 9 10 12 14 16 18 20 22 24 27 29 31 33 35 37 39 40 40 40 39 38 36 36 36 36 37 38
5 4 4 5 6 6 6 5 5 4 4 3 3 3 3 4 4 5 6 7 8 10 11 11 12 14 14 14 13 12 11 10 10 9 8 7 7 6 6 5 5 4 3 2 1 0 0 0 0 1 1 2 3 5 6 7 8 9 10 12 14 16 18 20 22 24 26 29 31 33 35 36 38 39 39 39 38 37 35 34 34 35 36 38 39
5 4 4 4 5 6 6 6 5 4 4 4 4 5 6 6 7 6 6 7 9 10 10 10 11 12 12 11 11 11 11 10 10 9 8 7 7 6 6 5 5 4 4 3 3 2 2 2 2 3 4 5 6 7 7 8 9 10 12 14 16 18 20 22 24 26 28 30 32 34 35 37 38 38 38 37 36 35 34 34 34 35 37 39 41
6 6 5 6 6 6 6 6 5 4 4 4 5 7 8 8 7 6 6 7 8 9 9 9 9 9 9 9 9 9 9 9 9 9 8 8 8 8 8 7 7 6 5 5 4 3 3 4 4 5 6 7 7 8 8 9 11 12 14 16 18 19 21 23 25 27 29 31 33 34 36 37 38 37 37 36 34 34 33 34 34 36 38 40 43
Wind_Direction
301 300 298 298 295 290 287 284 282 279 278 277 278 279 279 277 275 272 270 269 269 268 266 263 259 254 249 244 241 240 239 239 239 239 240 239 239 239 238 238 237 237 237 238 238 237 237 238 240 243 244 245 245 245 244 244 245 247 247 248 249 249 250 251 252 253 254 253 252 252 253 254 254 254 255 256 257 258 258 258 259 260 261 261 261
300 298 297 297 295 291 287 284 281 277 275 274 274 275 275 275 273 270 268 267 266 267 265 263 260 257 253 249 245 241 240 240 240 241 241 241 241 241 241 240 239 238 238 238 238 238 238 238 239 240 242 243 243 243 242 242 243 245 245 246 248 249 250 251 252 253 253 252 251 251 252 253 252 252 253 254 255 256 257 258 259 260 260 261 261
301 298 296 296 295 293 290 286 282 277 273 271 270 271 271 271 271 269 267 264 262 262 263 262 260 257 254 251 249 246 242 240 241 241 242 243 243 243 243 243 242 242 241 240 240 241 241 240 239 239 240 241 242 243 243 243 244 244 244 245 246 247 249 251 252 253 253 252 251 250 251 252 252 250 251 252 253 255 257 258 258 259 259 260 261
301 300 297 295 294 293 292 290 286 281 275 270 267 268 268 267 267 267 265 262 259 258 259 260 259 257 254 251 248 247 244 242 241 241 242 243 243 244 245 245 245 244 244 244 244 244 244 244 243 241 241 241 242 243 244 244 245 245 246 245 245 246 247 249 251 252 252 252 251 250 251 252 251 250 250 251 252 253 255 256 257 257 258 260 262
300 300 298 296 294 293 293 292 289 284 277 270 267 266 266 266 265 264 263 259 256 255 255 256 256 255 252 249 246 243 242 241 241 240 241 242 243 243 244 245 246 246 246 247 247 248 248 247 247 246 245 244 243 243 244 245 245 245 246 246 246 246 246 248 249 251 251 250 249 248 249 250 251 251 251 250 250 251 252 254 255 256 258 261 263
298 299 298 296 294 293 292 291 290 287 281 273 267 264 264 265 264 262 261 258 254 253 252 252 252 252 251 248 246 243 240 239 239 238 238 239 241 242 243 244 245 246 247 248 249 249 250 250 250 250 249 249 248 247 247 247 246 246 246 246 246 245 245 246 247 249 249 248 247 246 247 248 250 251 251 250 249 249 250 252 255 257 259 261 264
295 297 296 294 292 291 290 289 288 287 284 277 268 263 261 260 260 259 258 256 253 250 249 249 248 249 250 249 248 247 244 242 240 239 238 238 239 240 241 242 244 245 246 248 248 250 251 252 252 253 253 253 252 252 251 250 249 249 248 247 246 245 244 243 244 245 246 246 245 245 246 247 249 250 251 250 249 249 250 252 254 255 258 260 264
293 294 294 293 291 288 287 287 286 285 284 281 274 267 261 258 258 258 256 254 252 250 249 248 247 248 249 249 249 249 248 247 245 243 242 241 241 240 240 241 242 244 245 246 248 249 250 251 252 252 253 253 254 254 254 253 252 251 250 249 248 247 246 243 242 242 242 243 244 244 245 246 247 249 250 251 250 250 250 251 252 254 256 260 264
291 292 292 291 289 287 284 284 284 284 284 282 279 273 267 262 259 257 256 254 253 252 250 249 248 247 248 249 249 249 250 250 249 248 246 245 245 244 243 243 243 244 245 246 248 249 250 250 251 251 251 251 251 251 252 252 252 252 251 250 250 249 248 246 244 242 242 242 243 244 244 245 246 247 249 250 251 251 250 250 251 253 255 259 262
290 290 289 287 287 286 283 281 281 282 283 283 281 278 272 267 261 257 256 254 253 251 250 249 248 248 248 249 249 249 250 250 251 250 249 249 248 247 247 246 246 246 247 248 249 250 251 251 251 251 251 250 250 250 250 250 250 250 250 249 249 249 248 247 246 245 244 244 244 243 244 244 245 245 247 248 250 250 249 250 251 252 254 258 260
288 289 287 284 285 285 283 279 278 279 282 283 283 281 277 271 265 260 256 254 252 250 249 249 249 248 248 248 249 250 250 251 251 252 252 252 252 251 251 250 250 249 249 249 249 250 251 251 252 251 251 251 251 251 251 250 249 248 248 247 246 246 246 246 245 244 244 244 244 244 243 243 243 243 245 246 248 249 249 249 251 252 254 256 258
286 286 285 284 284 284 282 279 277 277 280 283 284 283 280 276 270 265 259 255 253 251 250 250 250 250 250 250 251 252 252 252 253 254 254 255 255 254 254 253 253 253 253 252 252 252 252 252 252 252 252 251 251 250 250 250 250 248 247 245 243 242 242 242 242 242 242 242 242 243 242 242 242 242 243 245 248 248 249 249 251 252 254 255 256
284 284 284 284 284 283 282 279 276 276 278 282 284 285 283 279 274 268 263 259 256 254 254 253 253 253 253 254 254 255 256 257 257 257 257 257 257 257 256 256 256 256 256 256 256 256 256 255 255 254 254 254 253 251 250 250 249 248 247 245 243 240 238 237 237 237 237 238 239 240 241 241 241 242 243 244 246 248 248 249 250 252 254 255 257
283 282 282 283 284 283 282 279 277 276 278 282 284 284 283 279 275 270 266 262 259 257 256 256 256 256 257 257 258 258 260 260 260 260 260 260 260 260 259 259 259 259 259 260 259 259 259 258 258 257 256 256 255 253 252 250 248 246 245 244 243 241 237 235 235 234 234 234 236 237 238 239 240 241 242 243 245 247 247 248 250 251 254 256 257
282 280 279 281 284 284 282 280 279 279 280 283 284 283 281 277 274 271 267 264 262 260 259 259 259 259 259 260 260 261 262 262 262 262 262 262 263 263 262 262 262 262 262 261 260 260 260 260 260 259 258 257 256 255 252 249 247 244 242 241 241 240 237 235 234 235 234 233 233 233 234 236 238 239 241 242 244 245 246 247 250 252 254 256 257
280 280 278 279 283 285 283 281 280 281 283 284 284 281 277 274 271 269 268 267 266 265 264 263 263 264 264 264 265 265 265 265 264 264 264 264 263 263 263 263 262 262 261 261 261 260 259 258 258 258 258 256 255 254 252 248 244 241 239 238 237 236 235 233 233 234 235 234 233 233 233 234 236 237 239 240 242 245 247 248 250 252 254 256 256
280 279 276 279 284 286 283 280 281 284 286 286 284 280 275 272 271 271 271 272 272 272 271 270 269 268 268 267 266 266 265 265 264 264 263 263 262 262 262 263 263 262 261 258 256 254 253 253 254 255 256 256 254 253 251 247 243 238 235 235 234 233 232 231 231 232 234 234 234 234 234 235 235 236 237 239 242 246 247 248 250 251 253 255 256
281 279 277 282 287 286 281 280 283 287 287 285 282 279 278 278 278 279 278 278 277 275 274 272 271 270 270 270 269 269 269 269 269 269 267 265 264 263 262 262 263 261 254 247 243 245 250 254 256 257 258 257 255 253 250 246 242 237 233 231 231 229 229 229 229 229 231 233 233 234 234 234 234 235 237 240 243 245 246 247 249 250 253 255 256
287 284 284 289 290 284 281 282 286 287 285 283 284 286 288 289 287 285 283 281 280 278 276 275 276 279 283 287 290 291 290 288 285 281 275 270 266 264 263 263 259 251 243 238 241 250 257 260 260 261 261 259 254 250 247 242 237 234 231 228 227 226 226 227 226 226 228 230 231 231 231 232 232 234 237 240 241 243 246 246 247 249 253 255 254
301 296 298 298 292 284 284 286 286 286 285 289 296 300 300 297 292 288 286 286 286 287 292 319 337 336 334 329 323 318 311 304 298 293 286 276 268 266 265 261 252 242 239 242 250 260 264 262 260 261 261 258 250 246 243 236 229 227 225 222 222 222 223 224 223 222 224 225 227 229 230 230 232 234 236 238 240 242 245 245 246 250 254 254 254
320 314 312 306 296 291 290 289 288 290 299 308 311 309 306 300 294 292 297 336 63 71 62 44 20 360 347 338 328 318 310 303 295 291 290 281 271 268 266 259 250 244 245 251 259 265 264 260 260 264 262 255 246 241 236 229 223 220 217 215 215 216 217 217 217 219 222 225 228 230 231 231 232 233 234 236 239 242 244 245 248 253 254 254 254
345 342 335 320 307 301 296 295 303 314 321 324 323 318 314 310 314 21 89 91 84 71 52 34 19 3 347 334 326 318 311 306 297 288 285 282 275 269 264 257 251 249 252 258 261 259 259 260 260 258 250 240 234 230 227 223 219 215 210 208 208 209 210 211 213 217 222 225 228 229 229 228 228 229 231 234 238 242 245 248 252 254 254 254 254
17 12 355 336 323 316 312 321 333 341 347 355 4 9 14 43 76 87 88 82 72 61 49 35 18 3 347 335 328 323 318 315 309 298 286 277 268 261 256 252 251 254 258 257 251 251 257 256 243 227 219 217 215 214 215 213 210 208 206 205 205 205 206 208 213 218 222 224 224 224 223 222 223 225 230 236 241 245 248 250 253 253 252 252 252
22 14 6 3 358 345 341 348 1 18 36 46 46 48 63 79 84 81 72 63 57 49 40 30 17 3 351 341 334 331 330 327 321 312 296 278 267 266 262 254 251 255 251 238 233 245 252 230 206 202 212 213 209 210 210 205 202 203 204 204 203 204 205 208 212 216 218 219 218 218 218 220 224 229 236 242 246 248 249 251 251 251 250 251 253
16 20 28 29 13 360 4 23 49 62 61 55 51 59 75 80 73 62 51 44 37 27 18 11 5 357 349 343 338 338 340 339 338 334 320 295 272 265 257 244 237 234 225 217 220 237 241 209 195 197 202 202 205 206 203 201 202 202 201 202 204 205 206 208 211 212 214 214 215 216 219 223 229 235 240 245 247 248 249 249 249 249 251 253 256
25 35 36 21 9 17 41 66 76 70 57 49 53 70 81 70 54 46 42 34 24 13 2 353 348 345 342 340 337 335 336 340 345 344 340 325 282 241 230 223 213 209 213 218 226 240 236 206 198 204 205 201 200 197 194 197 198 195 196 201 204 206 208 208 209 210 210 210 212 217 224 230 235 239 241 243 244 246 248 249 250 252 254 256 259
37 35 21 11 18 45 73 82 75 61 51 50 61 74 73 52 41 39 35 24 11 0 354 349 345 340 336 334 331 331 337 349 354 357 9 36 94 135 167 197 205 211 220 224 228 234 214 192 196 202 194 179 179 185 191 193 187 182 189 197 204 208 210 210 210 210 211 214 218 225 230 234 237 238 239 240 243 246 248 250 253 255 257 259 261
30 18 10 19 45 74 88 84 68 54 51 56 66 71 60 47 44 42 33 20 7 356 351 347 343 338 336 336 334 336 351 5 9 15 47 80 136 134 87 131 166 174 180 182 186 195 186 184 192 196 187 178 180 184 186 188 188 189 192 194 199 206 210 212 215 217 219 222 226 228 230 232 235 237 239 242 245 248 250 252 254 256 258 261 263
16 10 18 47 73 85 88 78 62 52 52 58 66 67 56 49 46 36 24 19 15 10 6 2 357 352 352 353 352 353 7 15 18 42 92 108 146 10 39 62 80 90 110 135 155 179 190 191 193 195 195 195 196 194 191 191 192 192 191 190 194 200 205 211 215 219 222 225 226 226 227 231 237 240 242 244 246 248 251 254 256 258 260 262 264
10 16 47 76 82 83 83 73 59 53 54 59 63 64 58 52 45 28 16 17 20 20 18 16 14 12 13 17 22 28 28 24 30 61 82 92 98 78 56 59 67 80 98 108 120 148 180 196 197 195 198 203 202 199 194 189 188 189 191 193 196 199 203 208 213 218 222 224 225 226 229 234 239 242 243 245 248 250 253 255 258 260 262 264 266
15 43 77 83 81 81 78 66 57 60 68 72 73 71 64 56 43 22 12 16 21 21 19 20 21 20 22 29 38 45 46 48 65 76 76 80 89 95 95 94 88 91 99 100 103 115 137 159 170 175 180 182 180 178 178 180 184 189 192 195 198 201 205 209 213 217 221 224 226 229 233 237 241 243 244 247 250 252 255 257 259 261 263 265 267
37 77 87 81 80 79 74 67 63 67 76 83 82 73 60 47 35 23 20 23 24 21 18 21 24 23 25 32 42 51 56 64 77 83 81 78 80 84 89 94 100 107 111 109 104 105 118 130 136 143 155 161 162 165 168 171 175 179 183 188 193 199 204 209 213 217 221 225 229 233 236 239 241 244 246 249 251 254 256 258 260 263 265 268 270
70 92 87 82 81 80 78 77 73 73 78 81 74 59 47 41 36 31 28 29 28 23 19 22 26 24 25 29 37 46 57 67 77 83 86 85 83 83 85 88 94 102 109 116 119 113 111 116 119 125 136 143 147 152 158 163 167 173 179 185 192 199 205 211 215 219 224 228 231 235 238 240 243 246 248 250 253 255 258 261 264 267 270 272 274
90 95 87 85 86 86 87 85 81 80 80 76 67 57 50 47 44 39 35 35 34 28 24 28 31 26 24 27 32 38 45 56 64 71 81 89 92 93 94 93 95 102 110 120 126 126 121 121 125 130 135 140 145 149 153 158 165 171 178 187 196 203 209 214 218 222 226 229 232 235 238 241 245 248 250 254 257 260 264 267 270 272 274 274 273
99 97 90 91 91 90 90 87 83 78 71 65 62 59 55 51 49 47 44 43 42 38 34 34 33 30 27 27 30 33 37 44 52 57 66 76 82 86 92 96 99 103 112 121 127 130 129 129 133 139 144 149 152 153 155 159 165 172 180 189 197 204 209 215 219 222 226 230 234 237 241 245 249 253 257 261 264 267 270 272 272 273 273 272 273
105 101 94 96 94 90 90 87 79 67 58 58 59 57 52 48 47 47 46 46 45 43 40 36 32 28 25 22 22 25 29 37 47 55 62 71 78 79 82 88 94 99 106 114 120 124 129 131 134 140 147 152 155 158 162 168 174 180 187 194 201 207 212 217 222 226 232 237 241 246 250 254 258 261 264 267 269 270 271 271 271 271 271 272 273
108 111 102 101 98 93 91 86 72 59 54 53 51 49 48 46 45 45 46 45 45 44 42 39 33 25 17 10 3 357 2 19 36 50 62 74 87 92 92 93 96 98 101 107 115 124 132 139 144 149 155 161 166 171 176 181 186 192 198 205 212 217 223 229 235 241 246 250 255 258 260 262 264 266 268 269 270 270 270 270 271 271 272 273 274
98 125 119 114 110 103 95 85 68 58 56 52 47 45 44 42 41 41 42 42 42 42 40 38 32 24 15 8 357 332 306 311 352 33 56 66 75 87 97 103 106 108 109 111 116 122 128 135 140 146 154 163 171 176 181 187 195 205 215 225 233 240 246 252 256 259 262 264 265 265 265 266 268 268 269 270 270 270 271 272 272 273 274 276 278
69 125 141 137 135 127 113 93 69 60 60 56 48 42 38 36 35 34 33 33 34 36 35 33 29 22 14 8 360 343 302 263 258 269 324 65 74 79 88 98 107 114 120 122 121 120 119 118 117 119 129 143 154 167 183 205 233 253 264 268 268 269 269 269 268 268 267 266 266 266 267 269 270 271 272 272 272 272 273 274 275 277 280 282 284
44 91 153 161 160 158 150 123 72 58 58 52 36 28 27 28 27 23 21 23 26 28 27 25 23 18 10 2 355 349 331 266 242 241 241 232 215 172 125 112 108 115 123 122 112 94 78 67 57 48 38 23 6 346 329 319 309 301 294 286 281 277 273 270 267 266 265 266 267 270 272 273 273 273 273 274 274 276 278 280 283 285 287 288 289
28 54 139 174 177 179 182 183 129 40 39 30 12 7 11 15 16 15 13 14 18 21 18 14 14 12 6 360 354 349 352 341 244 234 232 228 224 217 206 199 202 201 159 67 12 355 354 355 356 353 348 343 338 329 321 313 304 297 290 283 276 272 267 264 264 266 269 272 274 274 274 275 275 275 277 278 281 283 286 288 290 290 291 292 293
17 38 70 178 189 194 202 211 228 273 318 327 330 340 348 351 357 3 5 4 8 13 12 7 7 7 3 0 2 3 8 28 35 230 226 224 224 222 218 221 237 251 265 303 320 323 328 333 334 333 332 329 325 318 311 306 299 292 285 275 268 265 266 269 272 274 275 276 276 276 277 278 280 282 285 287 289 291 292 293 293 293 294 295 295
12 34 42 79 207 209 215 224 237 253 270 285 300 316 327 332 339 348 354 356 0 6 6 2 3 5 4 3 9 18 32 55 59 72 203 216 220 221 222 232 244 256 270 286 298 307 315 320 323 323 321 318 313 308 304 299 289 278 269 266 268 273 275 276 277 277 278 279 281 283 285 288 290 292 294 294 295 295 295 295 296 297 298 298 298
3 31 40 27 258 227 229 237 245 253 262 272 285 298 308 317 326 335 343 348 354 360 2 0 1 5 7 8 15 31 56 78 80 80 98 166 206 214 220 230 241 252 266 278 287 298 307 312 313 312 309 304 298 288 273 260 259 264 270 275 277 279 280 281 282 284 287 290 292 295 296 297 298 298 297 297 298 298 299 299 300 301 301 301 300
346 13 34 35 18 282 253 251 254 261 267 274 283 291 298 308 318 327 335 342 348 355 359 1 4 8 11 15 27 48 75 92 96 94 95 104 139 185 205 220 234 245 258 272 285 297 303 302 297 288 272 252 237 239 251 265 272 276 279 282 283 285 288 291 294 298 300 301 302 302 301 300 300 300 300 301 302 302 303 303 303 303 302 302 302
333 348 10 24 24 8 317 277 270 273 276 279 284 289 296 306 316 325 332 339 346 353 358 3 10 16 20 27 40 55 74 93 101 101 100 101 107 125 155 187 209 217 224 245 288 293 280 260 237 221 215 229 257 271 277 281 283 285 287 290 294 298 302 305 306 307 306 305 304 304 303 304 304 305 305 305 306 305 305 305 304 304 303 303 303
332 335 345 358 5 7 8 360 328 307 298 292 290 290 295 304 316 324 330 337 345 353 0 8 19 27 30 36 48 60 71 85 92 91 91 91 92 96 105 117 128 133 132 131 147 178 201 212 224 242 263 276 281 284 286 288 290 296 301 306 309 312 312 312 310 309 308 308 308 308 308 309 309 309 309 309 308 307 306 306 305 305 305 305 306
335 333 336 344 351 357 4 9 5 353 333 311 302 303 308 318 330 338 346 353 358 1 6 17 30 36 38 42 51 62 73 84 89 90 91 94 98 103 108 112 116 120 123 129 146 178 227 253 267 278 286 287 289 296 302 306 310 313 315 317 317 316 315 314 313 313 313 313 313 313 313 313 313 312 311 310 309 308 307 307 306 306 307 308 309
345 347 352 354 351 350 352 354 352 349 347 343 344 356 16 35 41 39 35 28 18 11 14 25 36 41 43 48 53 59 67 76 82 85 89 94 97 99 99 97 97 98 96 91 84 63 357 317 327 337 334 325 321 319 319 319 320 321 322 322 321 319 318 317 317 318 318 318 318 317 317 316 315 314 313 312 310 309 308 308 308 308 309 311 312
354 357 5 2 352 344 341 340 341 350 6 22 46 70 83 86 80 69 54 36 24 20 25 34 40 42 47 54 59 62 66 69 72 74 77 79 81 82 82 80 79 77 76 76 75 68 57 40 16 352 337 330 327 324 324 325 326 327 326 325 323 322 321 322 322 322 322 321 321 320 319 318 318 316 315 313 312 310 309 309 310 311 313 314 315
357 355 359 1 356 347 338 333 337 356 27 61 90 101 102 97 89 74 53 36 30 32 37 41 45 48 52 59 66 71 73 76 79 80 80 80 80 80 79 78 76 73 69 63 53 38 18 1 348 341 335 333 332 331 331 332 332 330 328 326 325 325 326 326 326 326 325 324 323 323 322 321 321 319 317 315 313 311 311 311 312 314 316 317 317
Height
5309 5307 5305 5304 5302 5300 5299 5298 5297 5295 5295 5295 5294 5294 5294 5293 5293 5293 5293 5293 5293 5293 5294 5295 5295 5297 5298 5300 5302 5305 5309 5313 5318 5323 5329 5336 5343 5348 5352 5356 5361 5367 5371 5375 5380 5384 5388 5392 5396 5400 5403 5406 5409 5414 5417 5422 5425 5428 5432 5435 5438 5442 5445 5447 5451 5456 5462 5469 5473 5476 5477 5478 5480 5483 5485 5487 5489 5491 5494 5496 5498 5500 5502 5503 5504
5304 5302 5300 5299 5297 5295 5294 5292 5292 5290 5289 5289 5289 5288 5288 5288 5288 5288 5288 5288 5289 5289 5289 5290 5291 5291 5293 5294 5296 5299 5302 5306 5310 5315 5321 5327 5332 5337 5341 5345 5351 5356 5360 5364 5368 5372 5376 5380 5384 5388 5391 5394 5397 5401 5405 5409 5413 5418 5422 5426 5430 5433 5435 5438 5440 5444 5451 5459 5464 5467 5469 5470 5472 5474 5476 5479 5481 5483 5486 5488 5490 5492 5493 5495 5496
5298 5296 5295 5294 5292 5290 5289 5287 5287 5286 5285 5284 5284 5283 5283 5283 5283 5283 5284 5284 5284 5284 5285 5285 5286 5286 5288 5289 5291 5293 5296 5299 5303 5307 5313 5317 5322 5326 5331 5335 5339 5344 5349 5353 5357 5360 5363 5368 5373 5377 5379 5382 5386 5390 5393 5398 5402 5407 5412 5416 5420 5424 5426 5428 5430 5433 5440 5448 5454 5458 5460 5462 5464 5465 5467 5470 5473 5476 5478 5480 5482 5484 5485 5487 5488
5293 5291 5289 5288 5287 5285 5284 5282 5281 5281 5280 5280 5279 5279 5279 5278 5279 5279 5279 5280 5280 5280 5281 5281 5281 5282 5283 5285 5286 5288 5290 5293 5296 5300 5304 5308 5312 5316 5320 5324 5328 5333 5337 5341 5344 5347 5351 5356 5361 5365 5367 5370 5375 5379 5383 5387 5392 5397 5401 5405 5410 5415 5417 5419 5419 5422 5429 5437 5443 5447 5450 5452 5455 5457 5458 5462 5465 5468 5470 5472 5474 5476 5477 5479 5480
5288 5287 5284 5283 5281 5280 5279 5278 5276 5276 5275 5275 5274 5275 5274 5274 5275 5275 5275 5276 5276 5276 5277 5277 5278 5278 5279 5281 5282 5284 5286 5288 5290 5293 5297 5300 5303 5307 5310 5313 5317 5321 5325 5329 5332 5336 5340 5345 5350 5353 5356 5359 5365 5370 5373 5377 5382 5387 5391 5395 5400 5404 5407 5409 5410 5411 5417 5426 5432 5437 5440 5443 5446 5448 5451 5454 5456 5459 5461 5463 5465 5467 5469 5470 5472
5283 5281 5279 5277 5276 5274 5273 5272 5271 5270 5270 5269 5269 5269 5270 5270 5270 5270 5270 5271 5272 5272 5273 5274 5274 5275 5276 5277 5278 5280 5282 5284 5286 5288 5290 5293 5295 5298 5301 5303 5307 5310 5314 5318 5321 5324 5328 5333 5338 5342 5345 5349 5355 5359 5362 5366 5370 5375 5380 5385 5389 5393 5395 5399 5401 5402 5406 5415 5421 5425 5430 5434 5436 5439 5443 5445 5447 5449 5453 5455 5457 5459 5460 5461 5464
5278 5276 5274 5272 5270 5269 5268 5267 5266 5265 5265 5264 5264 5264 5264 5265 5265 5265 5266 5266 5267 5268 5269 5270 5271 5271 5272 5273 5275 5276 5278 5280 5282 5284 5286 5287 5289 5291 5293 5295 5298 5302 5305 5308 5312 5315 5318 5323 5327 5330 5333 5338 5343 5347 5350 5353 5358 5363 5369 5374 5378 5381 5385 5389 5391 5393 5396 5403 5409 5415 5420 5424 5427 5430 5433 5435 5437 5441 5445 5448 5449 5449 5451 5453 5456
5271 5270 5268 5266 5265 5263 5262 5261 5261 5260 5259 5259 5259 5259 5259 5260 5260 5261 5261 5261 5262 5264 5265 5266 5267 5268 5269 5270 5271 5273 5274 5276 5277 5279 5281 5282 5284 5285 5287 5289 5292 5294 5297 5300 5303 5306 5309 5312 5316 5319 5322 5326 5331 5335 5337 5340 5344 5350 5356 5362 5366 5370 5375 5379 5382 5383 5386 5391 5398 5405 5410 5414 5418 5421 5423 5426 5430 5434 5437 5437 5438 5440 5442 5445 5448
5264 5263 5262 5260 5259 5257 5257 5256 5255 5254 5254 5254 5254 5254 5254 5255 5255 5256 5257 5257 5258 5260 5261 5262 5262 5263 5264 5266 5267 5269 5270 5271 5273 5274 5275 5277 5278 5280 5281 5283 5286 5288 5290 5293 5296 5298 5300 5303 5306 5308 5311 5314 5318 5321 5324 5326 5330 5336 5343 5348 5353 5358 5364 5368 5371 5374 5377 5380 5387 5394 5400 5404 5409 5412 5415 5419 5423 5425 5426 5426 5429 5432 5434 5437 5439
5257 5256 5256 5254 5252 5252 5251 5250 5250 5249 5249 5249 5249 5249 5249 5250 5250 5251 5251 5252 5253 5254 5255 5256 5257 5258 5259 5261 5262 5264 5265 5266 5267 5268 5269 5270 5271 5273 5275 5277 5279 5281 5284 5286 5289 5291 5292 5293 5296 5298 5300 5302 5305 5308 5311 5313 5316 5322 5328 5334 5339 5345 5351 5356 5360 5365 5368 5372 5377 5383 5389 5395 5400 5404 5407 5410 5413 5414 5415 5417 5421 5423 5426 5429 5430
5250 5249 5248 5247 5246 5246 5245 5245 5244 5244 5244 5244 5244 5244 5244 5244 5245 5245 5246 5247 5248 5248 5249 5250 5251 5252 5254 5256 5257 5258 5259 5260 5260 5261 5262 5263 5264 5266 5268 5270 5272 5274 5277 5279 5281 5283 5283 5285 5287 5288 5290 5293 5295 5297 5299 5301 5304 5308 5313 5319 5325 5331 5337 5343 5349 5354 5358 5363 5368 5373 5379 5386 5391 5395 5398 5401 5403 5404 5406 5409 5412 5415 5418 5420 5422
5244 5243 5241 5240 5239 5239 5239 5239 5239 5239 5239 5239 5239 5239 5239 5239 5239 5240 5240 5241 5241 5243 5244 5245 5246 5247 5249 5250 5251 5252 5253 5253 5254 5254 5255 5256 5257 5259 5261 5262 5264 5267 5269 5270 5272 5273 5275 5276 5278 5279 5281 5283 5285 5287 5289 5291 5294 5297 5301 5306 5311 5317 5323 5329 5335 5342 5347 5353 5358 5364 5371 5377 5381 5385 5390 5392 5394 5395 5397 5401 5405 5408 5409 5411 5413
5236 5236 5235 5233 5233 5233 5233 5234 5234 5234 5234 5234 5234 5234 5233 5233 5233 5234 5235 5235 5236 5237 5238 5239 5241 5242 5243 5244 5245 5245 5245 5246 5246 5247 5247 5248 5249 5250 5252 5253 5256 5258 5259 5260 5262 5263 5264 5265 5267 5269 5270 5272 5273 5276 5279 5281 5284 5287 5290 5294 5299 5304 5310 5316 5322 5329 5335 5341 5347 5355 5362 5367 5371 5377 5382 5384 5384 5385 5389 5393 5397 5399 5401 5403 5406
5228 5229 5229 5227 5227 5227 5228 5229 5229 5229 5230 5229 5229 5229 5228 5228 5228 5228 5229 5230 5231 5232 5233 5234 5235 5236 5237 5238 5238 5239 5239 5239 5239 5239 5239 5240 5240 5240 5242 5244 5246 5248 5250 5251 5252 5253 5253 5254 5255 5257 5258 5260 5261 5264 5267 5270 5272 5275 5279 5284 5288 5293 5299 5305 5312 5318 5324 5330 5338 5346 5353 5358 5362 5368 5373 5375 5376 5377 5381 5385 5387 5390 5393 5395 5397
5221 5222 5223 5222 5222 5222 5223 5224 5224 5225 5225 5225 5225 5224 5223 5223 5223 5223 5224 5225 5226 5227 5228 5229 5229 5230 5231 5232 5232 5233 5233 5232 5232 5232 5232 5232 5232 5231 5233 5235 5237 5238 5240 5241 5242 5243 5243 5243 5243 5244 5246 5248 5249 5250 5254 5257 5260 5264 5268 5273 5278 5283 5289 5296 5303 5310 5315 5322 5329 5336 5343 5348 5354 5359 5364 5367 5368 5370 5372 5375 5378 5382 5385 5387 5389
5214 5216 5217 5217 5217 5218 5219 5219 5220 5220 5221 5220 5220 5220 5219 5219 5219 5220 5221 5221 5222 5223 5223 5224 5224 5225 5225 5226 5227 5227 5226 5225 5225 5225 5225 5224 5224 5223 5223 5226 5228 5229 5230 5231 5232 5233 5233 5233 5233 5233 5234 5236 5237 5238 5241 5245 5248 5253 5258 5263 5268 5274 5280 5287 5295 5302 5308 5314 5321 5327 5333 5340 5346 5351 5355 5357 5360 5362 5364 5367 5370 5374 5377 5379 5380
5208 5210 5212 5212 5214 5214 5215 5216 5216 5216 5216 5216 5216 5215 5216 5216 5217 5217 5218 5218 5218 5219 5219 5219 5219 5219 5220 5220 5220 5220 5219 5218 5218 5217 5217 5217 5216 5215 5216 5217 5219 5221 5221 5222 5224 5225 5226 5225 5225 5224 5225 5227 5228 5229 5231 5234 5238 5242 5247 5253 5259 5265 5272 5279 5287 5295 5301 5308 5314 5320 5326 5333 5338 5342 5345 5348 5352 5355 5357 5360 5363 5366 5369 5371 5371
5204 5206 5208 5209 5210 5211 5212 5212 5213 5213 5213 5212 5212 5213 5213 5214 5215 5215 5215 5215 5215 5215 5215 5215 5215 5215 5215 5215 5215 5215 5214 5213 5212 5211 5211 5210 5209 5209 5210 5211 5212 5214 5215 5216 5218 5219 5220 5219 5218 5218 5219 5220 5221 5221 5223 5226 5229 5233 5239 5245 5251 5258 5265 5272 5280 5288 5296 5302 5309 5315 5321 5327 5331 5334 5338 5341 5345 5348 5350 5353 5357 5359 5362 5363 5363
5201 5203 5205 5207 5208 5208 5209 5210 5210 5210 5210 5210 5210 5211 5211 5212 5212 5212 5212 5211 5211 5211 5211 5211 5211 5211 5211 5211 5211 5211 5210 5209 5207 5206 5205 5204 5203 5202 5204 5205 5207 5208 5209 5211 5213 5214 5214 5213 5212 5212 5213 5214 5215 5215 5216 5219 5223 5227 5232 5239 5245 5252 5260 5268 5275 5283 5291 5298 5304 5309 5315 5320 5324 5327 5331 5334 5338 5341 5344 5347 5350 5352 5354 5354 5355
5200 5201 5203 5204 5205 5206 5207 5207 5207 5208 5208 5208 5209 5209 5209 5209 5209 5209 5209 5208 5209 5209 5209 5209 5209 5209 5209 5209 5208 5207 5206 5205 5204 5202 5200 5199 5198 5198 5199 5201 5202 5204 5206 5208 5209 5209 5209 5208 5207 5207 5208 5208 5209 5209 5211 5214 5218 5222 5228 5235 5242 5249 5257 5264 5271 5279 5286 5293 5298 5303 5308 5313 5317 5321 5325 5328 5332 5335 5337 5340 5343 5345 5346 5347 5348
5199 5201 5202 5203 5204 5204 5205 5205 5206 5206 5206 5207 5207 5207 5207 5207 5206 5206 5206 5207 5208 5208 5208 5208 5208 5208 5207 5206 5205 5204 5204 5203 5201 5199 5198 5197 5196 5195 5196 5198 5199 5201 5203 5204 5204 5204 5204 5203 5202 5202 5202 5203 5204 5205 5208 5211 5215 5219 5225 5232 5239 5246 5253 5259 5266 5274 5281 5287 5292 5297 5301 5306 5311 5315 5320 5323 5325 5328 5331 5333 5336 5338 5339 5340 5341
5200 5201 5201 5202 5203 5203 5204 5204 5204 5205 5205 5205 5205 5205 5205 5205 5205 5205 5206 5207 5207 5207 5207 5208 5207 5207 5206 5205 5204 5203 5201 5200 5199 5197 5196 5195 5194 5194 5194 5196 5197 5198 5199 5200 5200 5200 5200 5199 5198 5198 5199 5200 5201 5204 5206 5209 5213 5218 5223 5229 5236 5242 5248 5255 5262 5270 5277 5283 5288 5292 5297 5302 5307 5311 5314 5317 5319 5322 5325 5327 5329 5331 5332 5333 5334
5200 5201 5201 5202 5202 5202 5203 5203 5203 5204 5204 5204 5204 5204 5204 5205 5205 5206 5206 5207 5207 5207 5207 5207 5206 5206 5205 5203 5202 5201 5200 5198 5196 5195 5194 5193 5193 5192 5193 5194 5194 5195 5196 5196 5197 5197 5197 5196 5196 5197 5198 5199 5201 5203 5206 5209 5213 5217 5222 5227 5233 5239 5246 5253 5261 5268 5274 5279 5284 5289 5294 5299 5303 5306 5308 5311 5314 5316 5319 5321 5323 5324 5325 5326 5327
5201 5201 5201 5202 5202 5202 5202 5203 5203 5203 5203 5204 5204 5204 5204 5205 5206 5206 5207 5207 5207 5207 5206 5206 5205 5204 5203 5202 5200 5199 5198 5196 5195 5193 5192 5191 5191 5190 5191 5191 5191 5192 5192 5193 5194 5195 5195 5195 5196 5197 5198 5200 5202 5204 5206 5209 5213 5216 5220 5226 5232 5238 5245 5253 5260 5266 5272 5277 5282 5286 5290 5294 5298 5300 5303 5306 5309 5311 5313 5315 5316 5317 5319 5320 5321
5202 5202 5202 5202 5202 5202 5202 5203 5203 5203 5203 5204 5204 5204 5205 5205 5206 5207 5207 5207 5207 5206 5206 5205 5204 5203 5201 5200 5199 5198 5197 5195 5194 5192 5190 5189 5188 5188 5188 5188 5188 5189 5190 5192 5193 5194 5195 5195 5197 5198 5200 5201 5203 5205 5208 5210 5213 5216 5221 5226 5232 5239 5245 5252 5259 5265 5270 5274 5279 5283 5287 5290 5293 5296 5299 5302 5304 5306 5307 5308 5310 5311 5313 5314 5314
5203 5203 5203 5203 5203 5203 5203 5203 5203 5204 5204 5204 5204 5205 5205 5206 5207 5207 5207 5207 5207 5206 5205 5204 5202 5201 5200 5199 5198 5197 5196 5195 5194 5192 5190 5188 5187 5187 5187 5187 5188 5189 5191 5192 5193 5194 5195 5196 5197 5199 5200 5202 5204 5206 5209 5211 5214 5218 5223 5228 5233 5239 5245 5252 5258 5263 5267 5271 5275 5279 5283 5286 5289 5292 5295 5297 5299 5300 5301 5303 5304 5305 5306 5307 5308
5205 5204 5204 5203 5203 5203 5203 5204 5204 5205 5205 5205 5205 5205 5206 5207 5207 5208 5207 5207 5206 5205 5204 5203 5202 5201 5199 5198 5197 5197 5196 5195 5194 5192 5190 5189 5188 5189 5189 5189 5189 5190 5191 5192 5193 5194 5195 5196 5198 5199 5201 5203 5205 5207 5210 5212 5216 5220 5225 5229 5234 5239 5245 5251 5256 5261 5265 5269 5272 5276 5279 5283 5286 5288 5290 5292 5294 5295 5296 5297 5298 5299 5300 5300 5301
5206 5205 5205 5204 5204 5204 5205 5205 5206 5206 5206 5206 5206 5207 5207 5208 5208 5208 5208 5207 5206 5205 5204 5203 5202 5200 5199 5197 5196 5196 5195 5195 5194 5193 5191 5191 5190 5190 5191 5191 5191 5191 5192 5193 5194 5195 5196 5197 5198 5200 5202 5204 5207 5209 5212 5215 5219 5222 5226 5230 5235 5240 5245 5250 5255 5259 5263 5266 5270 5273 5277 5279 5281 5284 5286 5287 5289 5290 5291 5292 5293 5293 5294 5294 5293
5208 5206 5206 5205 5205 5206 5206 5207 5207 5207 5207 5207 5207 5208 5208 5209 5209 5208 5208 5207 5206 5205 5204 5203 5201 5200 5198 5197 5196 5195 5195 5195 5194 5193 5193 5192 5192 5192 5192 5192 5192 5193 5194 5194 5195 5196 5197 5198 5200 5201 5204 5206 5208 5211 5214 5217 5220 5223 5227 5231 5236 5240 5245 5249 5253 5257 5260 5264 5267 5270 5273 5275 5277 5280 5281 5283 5284 5285 5286 5287 5287 5287 5287 5286 5286
5209 5207 5207 5207 5207 5207 5208 5208 5208 5208 5208 5208 5208 5209 5209 5209 5209 5209 5208 5207 5206 5205 5204 5203 5201 5200 5198 5197 5196 5196 5195 5195 5195 5194 5194 5193 5193 5193 5193 5193 5193 5194 5195 5196 5197 5198 5199 5200 5201 5203 5205 5207 5209 5212 5214 5217 5220 5224 5228 5232 5235 5239 5243 5247 5251 5255 5258 5261 5264 5267 5269 5272 5274 5275 5276 5278 5279 5280 5280 5281 5281 5281 5280 5279 5278
5210 5209 5209 5209 5209 5209 5209 5210 5210 5209 5209 5209 5210 5210 5211 5211 5210 5210 5209 5208 5207 5206 5205 5204 5202 5201 5200 5198 5197 5197 5196 5196 5196 5196 5195 5195 5194 5194 5195 5195 5195 5196 5196 5197 5199 5200 5201 5202 5203 5205 5206 5208 5210 5212 5215 5218 5221 5224 5228 5231 5235 5239 5242 5246 5250 5253 5256 5259 5261 5264 5266 5268 5269 5271 5272 5273 5273 5274 5274 5275 5274 5274 5273 5272 5271
5211 5211 5211 5211 5211 5211 5211 5211 5211 5211 5211 5211 5212 5212 5212 5212 5211 5210 5208 5207 5207 5207 5206 5205 5204 5203 5202 5200 5199 5199 5198 5198 5198 5198 5198 5197 5197 5197 5197 5197 5197 5198 5198 5199 5200 5201 5203 5204 5206 5207 5209 5210 5212 5214 5217 5220 5223 5226 5229 5232 5235 5239 5242 5245 5248 5251 5254 5256 5258 5260 5262 5264 5265 5266 5267 5267 5268 5268 5268 5268 5268 5267 5267 5266 5264
5212 5213 5213 5213 5213 5213 5213 5213 5213 5213 5213 5213 5213 5213 5213 5212 5211 5210 5209 5208 5208 5208 5207 5206 5206 5205 5204 5203 5202 5201 5201 5201 5201 5201 5200 5200 5200 5200 5200 5200 5200 5201 5201 5202 5202 5203 5205 5207 5208 5210 5211 5213 5215 5217 5219 5222 5224 5227 5230 5233 5236 5239 5241 5244 5247 5249 5251 5253 5255 5257 5258 5259 5260 5261 5262 5262 5262 5263 5262 5262 5262 5261 5260 5259 5257
5215 5215 5215 5216 5216 5216 5216 5215 5215 5215 5215 5215 5215 5215 5214 5214 5213 5212 5211 5210 5210 5209 5209 5208 5207 5207 5206 5205 5204 5203 5203 5203 5203 5203 5203 5203 5203 5203 5203 5203 5203 5204 5204 5205 5206 5207 5208 5209 5211 5212 5214 5215 5217 5219 5221 5224 5226 5228 5231 5233 5236 5238 5241 5243 5245 5247 5249 5250 5252 5253 5254 5255 5256 5257 5257 5257 5257 5257 5257 5256 5255 5254 5253 5252 5251
5217 5218 5218 5218 5218 5218 5218 5218 5218 5218 5217 5217 5217 5217 5216 5215 5215 5214 5214 5213 5212 5211 5210 5209 5208 5208 5208 5207 5206 5206 5205 5205 5205 5205 5205 5205 5205 5206 5206 5206 5206 5207 5207 5208 5209 5210 5211 5212 5213 5215 5216 5217 5219 5221 5223 5225 5227 5229 5232 5234 5236 5238 5240 5241 5243 5245 5246 5247 5248 5249 5250 5251 5252 5252 5252 5252 5252 5252 5251 5250 5249 5248 5247 5246 5245
5220 5220 5220 5220 5220 5220 5220 5220 5220 5220 5219 5219 5219 5218 5218 5217 5217 5216 5215 5214 5213 5212 5211 5210 5209 5209 5208 5208 5208 5208 5207 5207 5207 5207 5207 5207 5207 5208 5208 5208 5208 5209 5209 5210 5211 5212 5213 5214 5215 5217 5218 5219 5221 5223 5224 5226 5228 5230 5232 5233 5235 5237 5238 5239 5241 5242 5243 5244 5245 5246 5246 5247 5247 5247 5247 5247 5247 5246 5245 5245 5244 5243 5242 5241 5239
5221 5222 5222 5222 5222 5222 5222 5222 5222 5221 5221 5221 5220 5219 5219 5219 5218 5217 5216 5215 5215 5214 5213 5212 5211 5210 5209 5209 5209 5208 5208 5208 5208 5208 5208 5209 5209 5209 5209 5210 5210 5211 5211 5212 5213 5214 5215 5216 5217 5218 5220 5221 5222 5224 5225 5227 5228 5230 5231 5232 5234 5235 5236 5237 5238 5239 5240 5240 5241 5242 5242 5242 5243 5243 5242 5242 5242 5241 5241 5240 5239 5238 5237 5235 5233
5223 5223 5223 5224 5224 5224 5224 5224 5223 5223 5223 5222 5222 5221 5221 5220 5219 5218 5218 5217 5216 5215 5214 5213 5212 5211 5210 5209 5209 5209 5209 5209 5209 5209 5210 5210 5210 5211 5211 5211 5212 5213 5213 5214 5215 5215 5217 5218 5219 5220 5221 5222 5223 5224 5226 5227 5228 5229 5230 5231 5232 5233 5233 5234 5235 5236 5236 5237 5238 5238 5238 5238 5238 5238 5238 5238 5238 5237 5236 5235 5234 5233 5231 5229 5227
5224 5224 5225 5225 5225 5225 5225 5225 5225 5224 5224 5224 5223 5223 5222 5222 5221 5220 5219 5219 5218 5217 5216 5215 5213 5212 5211 5210 5209 5209 5209 5209 5209 5210 5210 5211 5211 5212 5212 5213 5214 5214 5215 5216 5217 5217 5218 5219 5220 5221 5222 5222 5223 5224 5225 5226 5227 5228 5228 5229 5230 5230 5231 5232 5232 5233 5234 5234 5234 5235 5235 5235 5235 5235 5235 5234 5233 5232 5231 5230 5229 5227 5225 5223 5221
5225 5225 5225 5225 5226 5226 5226 5226 5226 5226 5225 5225 5224 5224 5223 5223 5222 5222 5221 5220 5219 5218 5217 5216 5214 5213 5212 5210 5209 5209 5208 5208 5209 5209 5210 5211 5211 5212 5213 5214 5215 5215 5216 5217 5218 5218 5219 5219 5220 5221 5222 5222 5223 5224 5224 5225 5226 5226 5227 5228 5228 5229 5229 5230 5230 5231 5231 5232 5232 5232 5232 5232 5232 5231 5231 5230 5229 5228 5227 5225 5223 5221 5219 5217 5214
5226 5226 5226 5226 5226 5227 5227 5227 5227 5226 5226 5226 5225 5225 5224 5224 5223 5223 5222 5221 5220 5219 5218 5216 5215 5213 5212 5210 5209 5209 5208 5208 5208 5209 5209 5210 5211 5212 5213 5214 5215 5216 5217 5217 5218 5219 5219 5220 5220 5221 5221 5222 5222 5223 5224 5224 5225 5225 5226 5226 5227 5227 5228 5228 5229 5229 5229 5229 5229 5229 5229 5229 5228 5228 5227 5226 5225 5223 5221 5219 5217 5215 5212 5210 5207
5227 5227 5226 5226 5227 5227 5227 5227 5227 5227 5226 5226 5226 5226 5225 5225 5224 5223 5222 5221 5220 5219 5218 5217 5215 5213 5212 5210 5209 5208 5208 5208 5208 5208 5209 5209 5211 5212 5213 5214 5215 5216 5217 5218 5218 5219 5219 5220 5220 5221 5221 5222 5222 5223 5223 5224 5224 5224 5225 5225 5225 5226 5226 5227 5227 5227 5227 5227 5227 5227 5226 5226 5225 5224 5223 5221 5219 5217 5215 5213 5211 5208 5205 5202 5199
5228 5227 5227 5227 5227 5227 5227 5227 5227 5227 5227 5226 5226 5226 5226 5225 5225 5224 5223 5222 5221 5220 5218 5217 5215 5213 5211 5210 5209 5208 5208 5208 5208 5208 5208 5209 5210 5212 5213 5214 5215 5216 5217 5218 5218 5218 5219 5219 5220 5220 5221 5221 5222 5222 5222 5222 5223 5223 5224 5224 5224 5225 5225 5225 5225 5225 5225 5225 5225 5224 5223 5222 5221 5219 5218 5216 5214 5211 5209 5206 5204 5201 5198 5195 5191
5229 5228 5227 5227 5227 5227 5227 5227 5227 5227 5227 5227 5226 5226 5226 5225 5225 5224 5223 5222 5221 5220 5218 5217 5215 5213 5211 5210 5209 5208 5208 5208 5208 5208 5208 5209 5210 5211 5213 5214 5215 5216 5216 5217 5218 5218 5219 5219 5220 5220 5220 5221 5221 5221 5221 5222 5222 5222 5223 5223 5223 5223 5223 5223 5223 5223 5223 5222 5222 5221 5219 5218 5216 5215 5212 5210 5208 5205 5202 5199 5196 5193 5190 5187 5184
5229 5228 5228 5227 5227 5227 5227 5227 5227 5227 5227 5227 5227 5226 5226 5225 5225 5224 5224 5223 5222 5220 5219 5217 5215 5213 5211 5210 5209 5209 5208 5209 5209 5209 5209 5210 5211 5212 5213 5214 5215 5216 5216 5217 5217 5218 5218 5219 5219 5220 5220 5220 5220 5220 5221 5221 5221 5222 5222 5222 5222 5222 5222 5222 5222 5221 5220 5219 5218 5217 5216 5214 5212 5210 5207 5204 5202 5199 5195 5192 5189 5186 5183 5180 5177
5229 5228 5228 5227 5227 5227 5227 5227 5226 5226 5227 5226 5226 5226 5225 5225 5225 5224 5224 5223 5222 5221 5219 5218 5216 5214 5212 5211 5210 5210 5210 5210 5210 5210 5211 5211 5212 5213 5214 5215 5215 5216 5217 5217 5218 5218 5218 5219 5219 5219 5220 5220 5220 5220 5220 5221 5221 5221 5221 5221 5221 5221 5220 5220 5219 5218 5218 5216 5215 5213 5211 5209 5207 5204 5201 5198 5195 5192 5189 5186 5183 5179 5176 5173 5170
5229 5229 5228 5227 5227 5227 5227 5226 5226 5226 5226 5226 5225 5225 5225 5225 5225 5224 5224 5223 5223 5221 5220 5219 5217 5215 5214 5213 5212 5212 5211 5212 5212 5212 5213 5213 5214 5215 5215 5216 5216 5216 5217 5218 5218 5218 5219 5219 5219 5219 5220 5220 5220 5220 5220 5220 5220 5220 5220 5220 5219 5219 5218 5218 5217 5216 5214 5213 5211 5209 5207 5204 5201 5198 5195 5192 5189 5186 5183 5179 5176 5173 5170 5168 5165
5229 5229 5228 5227 5227 5227 5226 5226 5226 5226 5225 5225 5225 5224 5224 5224 5224 5224 5224 5223 5223 5222 5221 5220 5218 5217 5216 5215 5214 5214 5214 5214 5214 5214 5215 5215 5216 5216 5216 5217 5217 5217 5218 5218 5219 5219 5219 5220 5220 5220 5220 5220 5220 5220 5220 5220 5219 5219 5219 5218 5218 5217 5216 5215 5214 5212 5211 5209 5207 5204 5202 5199 5196 5193 5190 5187 5183 5180 5177 5174 5171 5168 5165 5162 5159
5230 5229 5228 5228 5227 5227 5226 5226 5226 5225 5225 5225 5224 5224 5224 5224 5224 5224 5224 5224 5223 5223 5222 5221 5220 5219 5218 5217 5217 5216 5216 5216 5216 5216 5217 5217 5217 5218 5218 5218 5218 5219 5219 5219 5219 5220 5220 5220 5220 5220 5220 5219 5219 5219 5219 5218 5218 5218 5217 5217 5216 5215 5214 5212 5211 5209 5207 5205 5202 5200 5197 5194 5191 5188 5185 5181 5178 5174 5171 5169 5166 5163 5160 5157 5153
5230 5229 5229 5228 5227 5227 5226 5226 5225 5225 5224 5224 5224 5224 5224 5225 5225 5225 5225 5225 5224 5224 5223 5222 5221 5221 5220 5219 5219 5219 5218 5218 5218 5218 5219 5219 5219 5219 5219 5219 5219 5220 5220 5220 5220 5220 5220 5220 5219 5219 5219 5219 5218 5218 5218 5217 5217 5216 5216 5215 5214 5212 5211 5209 5208 5206 5203 5201 5199 5196 5193 5190 5186 5183 5179 5176 5172 5169 5166 5164 5161 5158 5155 5151 5148
5231 5230 5229 5228 5228 5227 5226 5226 5225 5225 5225 5224 5225 5225 5225 5225 5226 5226 5226 5226 5226 5225 5224 5223 5223 5222 5222 5221 5221 5220 5220 5220 5220 5220 5220 5220 5220 5220 5220 5220 5220 5220 5220 5220 5220 5220 5220 5219 5219 5219 5218 5218 5218 5217 5216 5216 5215 5215 5214 5213 5211 5210 5208 5206 5204 5202 5200 5197 5195 5192 5188 5185 5181 5178 5174 5171 5168 5165 5162 5159 5156 5153 5149 5146 5142